Regional Weather Roundup
Issued by NWS

Home | Current Version | Previous Version | Text Only | Print | Product List | Glossary On
Versions: 1 2 3 4 5 6 7 8 9 10 11 12 13 14 15 16 17 18 19 20 21 22 23 24 25 26 27 28 29 30 31 32 33 34 35 36 37 38 39 40 41 42 43 44 45 46 47 48 49 50
000
ASUS43 KDMX 281406
RWRIA

WEATHER ROUNDUP FOR IOWA
NATIONAL WEATHER SERVICE DES MOINES IA
900 AM CDT TUE MAR 28 2017

NOTE: "FAIR" INDICATES FEW OR NO CLOUDS BELOW 12,000 FEET WITH NO
SIGNIFICANT WEATHER AND/OR OBSTRUCTIONS TO VISIBILITY.

* - THESE STATIONS ARE NOT NWS STATIONS...THUS NOT UNDER NWS
QUALITY CONTROL.  THEY ALSO DO NOT REPORT WEATHER SUCH
AS PRECIPITATION OR FOG.

IAZ001>003-012>014-020>022-031>034-043>046-281500-
   NORTHWEST IOWA

CITY           SKY/WX    TMP DP  RH WIND       PRES   REMARKS
CARROLL *      FOG       39  39 100 CALM      30.11R VSB 3/4
CHEROKEE *     CLOUDY    35  35 100 CALM      30.11S
DENISON *      CLOUDY    39  39 100 CALM      30.12R FOG
LE MARS *      CLOUDY    37  36  93 CALM      30.12S
ORANGE CITY *  SUNNY     39  39 100 CALM      30.11R
SHELDON *      SUNNY     39  37  93 CALM      30.10R
STORM LAKE *   SUNNY     41  39  93 E6        30.10R
$$

IAZ055>058-069>071-079>083-090>094-281500-
   SOUTHWEST IOWA

CITY           SKY/WX    TMP DP  RH WIND       PRES   REMARKS
ATLANTIC *     CLOUDY    46  41  81 E8        30.09S
AUDUBON *      CLOUDY    45  41  87 NE5       30.10R
CLARINDA *     CLOUDY    46  43  87 NE5       30.12R
COUNCIL BLFS * CLOUDY    43  43 100 CALM      30.09R
CRESTON *      CLOUDY    45  41  87 NE7       30.11R
HARLAN  *      CLOUDY    46  45  93 NE6       30.13R
RED OAK *      CLOUDY    46  41  81 MISG      30.10R
SHENANDOAH *   CLOUDY    46  41  81 E6        30.10S
$$

IAZ047>049-059>061-072>074-084-281500-
   CENTRAL IOWA

CITY           SKY/WX    TMP DP  RH WIND       PRES   REMARKS
ANKENY *       CLOUDY    46  43  87 NE3       30.11R
BOONE *        CLOUDY    45  45 100 NE7       30.09S
CHARITON *     CLOUDY    46  43  87 CALM      30.10R
DES MOINES     CLOUDY    48  42  80 N5        30.10R
GRINNELL*      CLOUDY    45  42  90 NE5       30.11R
KNOXVILLE *    CLOUDY    46  41  81 N3        30.08R
NEWTON *       CLOUDY    45  43  93 NE3       30.10R
PELLA *        CLOUDY    46  43  87 NE3       30.11R
PERRY *        CLOUDY    45  43  92 CALM      30.11R
$$

IAZ004>006-015-016-023>025-035-036-281500-
   NORTH CENTRAL IOWA

CITY           SKY/WX    TMP DP  RH WIND       PRES   REMARKS
ALGONA *       FOG       34  34 100 CALM      30.12R VSB<1/4
CLARION *      CLOUDY    39  39 100 CALM      30.12R
ESTHERVILLE    SUNNY     38  38 100 CALM      30.11R FOG
FORT DODGE *   CLOUDY    36  34  93 CALM      30.12R VSB 1/2
FOREST CITY *  FOG       37  37 100 CALM      30.12R VSB 1/2
WEBSTER CITY * CLOUDY    39  39 100 CALM      30.10R
IOWA FALLS *   CLOUDY    45  41  88 NE5       30.12R
$$

IAZ007>011-017>019-026>030-037>042-050>054-066-281500-
   NORTHEAST IOWA

CITY           SKY/WX    TMP DP  RH WIND       PRES   REMARKS
CHARLES CITY * CLOUDY    45  45 100 E6        30.11R
CLINTON *      CLOUDY    46  44  93 E13       30.11R FOG
DECORAH *      PTSUNNY   43  39  87 NE7       30.10R
DUBUQUE        FOG       43  43 100 E8        30.10R VSB 1
MONTICELLO *   PTSUNNY   46  45  93 NE6       30.09S
OELWEIN *      CLOUDY    45  45 100 NE9       30.11R
WATERLOO       CLOUDY    45  41  86 NE7       30.11R
$$

IAZ064-065-067-068-078-281500-
   EAST CENTRAL IOWA

CITY           SKY/WX    TMP DP  RH WIND       PRES   REMARKS
MUSCATINE *    CLOUDY    48  46  93 NE8       30.10R
QUAD CITIES    CLOUDY    49  44  83 N5        30.09R HAZE
$$

IAZ062-063-075>077-085>089-095>099-281500-
   SOUTHEAST IOWA

CITY           SKY/WX    TMP DP  RH WIND       PRES   REMARKS
FAIRFIELD *    CLOUDY    46  46 100 NE8       30.08R FOG
FORT MADISON * CLOUDY    50  48  93 NE3       30.09R FOG
KEOKUK *       CLOUDY    50  48  93 NE5       30.08R
OSKALOOSA *    CLOUDY    46  43  91 NE6       30.09R
CENTERVILLE *  CLOUDY    46  45  93 CALM      30.11R
WASHINGTON *   CLOUDY    48  48 100 NE7       30.10R
$$

ABBREVIATIONS USED IN REMARKS
   TC - TEMPERATURES IN CELSIUS
  WCI - WIND CHILL INDEX
   HX - HEAT INDEX
  VSB - VISIBILITY
$$





USA.gov is the U.S. government's official web portal to all federal, state and local government web resources and services.